logo meteosicilia

Diretta Meteo Roma-Ciampino, Italiasabato 15 giugno ore 19:50

Mappa
Sereno 23 °C Sereno 24 Ore: T.min 16 T.max 28
Ponente Sud-Ovest Km/h 14.8 Punto di rugiada: 14 °C Umidità: 56% Visibilità: 10 Km
Il sole sorge alle: 05:32 Il sole tramonta alle: 20:47
15 Giugno 2024 19:50 tempo osservato: Sereno Sereno 23 56 1013 vento: Nord SO 14.8
15 Giugno 2024 19:20 tempo osservato: Sereno Sereno 23 49 1013 vento: Nord SO 14.8
15 Giugno 2024 18:50 tempo osservato: Sereno Sereno 24 47 1013 vento: Nord SO 14.8
15 Giugno 2024 18:20 tempo osservato: Sereno Sereno 25 41 1013 vento: Nord S/SO 18.5
15 Giugno 2024 17:50 tempo osservato: Sereno Sereno 26 39 1013 vento: Nord SO 18.5
15 Giugno 2024 17:20 tempo osservato: Sereno Sereno 25 38 1013 vento: Nord S/SO 16.7
15 Giugno 2024 16:50 tempo osservato: Sereno Sereno 26 34 1013 vento: Nord S/SO 16.7
15 Giugno 2024 16:20 tempo osservato: Sereno Sereno 26 34 1014 vento: Nord SO 16.7
15 Giugno 2024 15:50 tempo osservato: Sereno Sereno 27 30 1014 vento: Nord SO 16.7
15 Giugno 2024 15:20 tempo osservato: Sereno Sereno 26 29 1014 vento: Nord O/SO 16.7
15 Giugno 2024 14:50 tempo osservato: Sereno Sereno 26 34 1014 vento: Nord S/SO 16.7
15 Giugno 2024 14:20 tempo osservato: Sereno Sereno 26 39 1014 vento: Nord O/SO 20.3
15 Giugno 2024 13:50 tempo osservato: Sereno Sereno 27 34 1014 vento: Nord S/SO 14.8
15 Giugno 2024 13:20 tempo osservato: Sereno Sereno 27 39 1014 vento: Nord S 14.8
15 Giugno 2024 12:50 tempo osservato: Sereno Sereno 28 23 1015 vento: Nord N 9.3
15 Giugno 2024 12:20 tempo osservato: Sereno Sereno 27 24 1015 vento: Nord N 5.5
15 Giugno 2024 11:50 tempo osservato: Sereno Sereno 27 21 1015 vento: Nord N 9.3
15 Giugno 2024 11:20 tempo osservato: Sereno Sereno 26 22 1015 vento: Nord N 9.3
15 Giugno 2024 10:50 tempo osservato: Sereno Sereno 24 31 1015 vento: Nord N 3.7
15 Giugno 2024 10:20 tempo osservato: Sereno Sereno 24 41 1015 vento: Nord N 5.5
15 Giugno 2024 09:50 tempo osservato: Sereno Sereno 23 49 1016 vento: Nord N 1.8
15 Giugno 2024 09:20 tempo osservato: Sereno Sereno 21 60 1016 vento: Nord N 3.7
15 Giugno 2024 08:50 tempo osservato: Sereno Sereno 20 68 1016 vento: Nord N 5.5
15 Giugno 2024 08:20 tempo osservato: Sereno Sereno 20 68 1016 vento: Nord N 3.7
15 Giugno 2024 07:50 tempo osservato: Sereno Sereno 20 68 1016 vento: Nord N 1.8
15 Giugno 2024 07:20 tempo osservato: Sereno Sereno 19 63 1016 vento: Nord N 1.8
15 Giugno 2024 06:50 tempo osservato: Sereno Sereno 17 63 1016 vento: Nord N 3.7
15 Giugno 2024 06:20 tempo osservato: Sereno Sereno 16 63 1015 vento: Nord N 3.7
15 Giugno 2024 05:50 tempo osservato: Sereno Sereno 16 55 1015 vento: Nord N 3.7
15 Giugno 2024 05:20 tempo osservato: Sereno Sereno 16 58 1015 vento: Nord N 3.7
15 Giugno 2024 04:50 tempo osservato: Sereno Sereno 16 58 1015 vento: Nord N 5.5
15 Giugno 2024 04:20 tempo osservato: Sereno Sereno 16 67 1015 vento: Nord N 3.7
15 Giugno 2024 03:50 tempo osservato: Sereno Sereno 17 67 1015 vento: Nord N 3.7
15 Giugno 2024 03:20 tempo osservato: Sereno Sereno 17 72 1016 vento: Nord N 3.7
15 Giugno 2024 02:50 tempo osservato: Sereno Sereno 17 72 1016 vento: Nord N 5.5
15 Giugno 2024 02:20 tempo osservato: Sereno Sereno 17 77 1016 vento: Nord N 3.7
15 Giugno 2024 01:50 tempo osservato: Sereno Sereno 18 72 1017 vento: Nord N 5.5
15 Giugno 2024 01:20 tempo osservato: Sereno Sereno 18 72 1017 vento: Nord N 3.7
15 Giugno 2024 00:20 tempo osservato: Sereno Sereno 19 72 1018 vento: Nord SE 7.4
14 Giugno 2024 23:50 tempo osservato: Sereno Sereno 19 77 1018 vento: Nord S 7.4
14 Giugno 2024 23:20 tempo osservato: Sereno Sereno 19 77 1018 vento: Nord S 7.4
14 Giugno 2024 22:50 tempo osservato: Sereno Sereno 19 72 1018 vento: Nord S 9.3
14 Giugno 2024 22:20 tempo osservato: Sereno Sereno 19 72 1018 vento: Nord SO 7.4
14 Giugno 2024 21:50 tempo osservato: Sereno Sereno 20 59 1018 vento: Nord N 5.5
14 Giugno 2024 21:20 tempo osservato: Sereno Sereno 20 59 1017 vento: Nord N 5.5
14 Giugno 2024 20:50 tempo osservato: Sereno Sereno 21 56 1017 vento: Nord SO 7.4